K4DXB Weather Reports


time (UTC)temp
C
wind
direction
speed
KPH
gust
KPH
rain 1hr
cm
rain 24hr
cm
rain mn
cm
humidity
%
barometer
mb
20260504205949 24 338 6.4 11.3 0.00 0.00 0.00 2 1010.3
20260504204450 25 114 1.6 11.3 0.00 0.00 0.00 2 1010.3
20260504202948 25 222 4.8 17.7 0.00 0.00 0.00 2 1010.3
20260504201532 23 204 9.7 17.7 0.00 0.00 0.00 2 1010.5
20260504201450 23 204 9.7 17.7 0.00 0.00 0.00 2 1010.5
20260504200027 23 201 0.0 6.4 0.00 0.00 0.00 2 1010.6
20260504195949 23 201 0.0 6.4 0.00 0.00 0.00 2 1010.6
20260504194449 23 252 3.2 17.7 0.00 0.00 0.00 2 1010.8
20260504192948 23 296 6.4 14.5 0.00 0.00 0.00 3 1010.8
20260504191449 23 214 8.0 19.3 0.00 0.00 0.00 3 1011.2
20260504184449 23 210 4.8 12.9 0.00 0.00 0.00 3 1011.4
20260504183037 22 248 3.2 16.1 0.00 0.00 0.00 3 1012.0
20260504182948 22 248 3.2 16.1 0.00 0.00 0.00 3 1012.0
20260504181450 23 247 0.0 14.5 0.00 0.00 0.00 3 1012.0
20260504174449 22 175 6.4 8.0 0.00 0.00 0.00 3 1012.2
20260504172950 22 267 0.0 11.3 0.00 0.00 0.00 3 1012.5
20260504171449 21 282 3.2 17.7 0.00 0.00 0.00 3 1012.7
20260504130122 15 121 3.2 11.3 0.00 0.00 0.00 5 1015.1
20260504081449 6 0 0.0 1.6 0.00 0.00 0.00 6 1015.0
20260504045951 7 0 0.0 0.0 0.00 0.00 0.00 5 1014.5
20260504044448 7 0 0.0 0.0 0.00 0.00 0.00 5 1014.5
20260504043617 7 0 0.0 0.0 0.00 0.00 0.00 5 1014.3
20260504042948 7 0 0.0 0.0 0.00 0.00 0.00 5 1014.3
20260504041449 7 0 0.0 0.0 0.00 0.00 0.00 5 1014.3
20260504035949 7 0 0.0 0.0 0.00 0.00 0.00 5 1014.1
20260504034448 7 0 0.0 0.0 0.00 0.00 0.00 5 1014.0
20260504032948 7 0 0.0 0.0 0.00 0.00 0.00 5 1014.0
20260504031449 6 0 0.0 0.0 0.00 0.00 0.00 5 1014.0
20260504025949 7 0 0.0 0.0 0.00 0.00 0.00 5 1013.8
20260504024448 6 0 0.0 0.0 0.00 0.00 0.00 5 1014.0
20260504021449 7 0 0.0 0.0 0.00 0.00 0.00 5 1014.0
20260504015948 7 0 0.0 0.0 0.00 0.00 0.00 5 1013.8
20260504014448 7 0 0.0 0.0 0.00 0.00 0.00 5 1013.8
20260504012949 7 0 0.0 0.0 0.00 0.00 0.00 5 1013.5
20260504011448 8 0 0.0 0.0 0.00 0.00 0.00 5 1013.3
20260504005948 9 0 0.0 0.0 0.00 0.00 0.00 4 1013.1
20260504004448 10 0 0.0 0.0 0.00 0.00 0.00 4 1012.9
20260504002950 11 0 0.0 0.0 0.00 0.00 0.00 4 1012.6
20260504001449 12 0 0.0 0.0 0.00 0.00 0.00 3 1012.5
20260503235948 12 0 0.0 0.0 0.00 0.00 0.00 3 1012.4
20260503232949 15 239 1.6 6.4 0.00 0.00 0.00 2 1012.2
20260503225950 16 248 4.8 11.3 0.00 0.00 0.00 2 1012.1
20260503224450 16 249 3.2 14.5 0.00 0.00 0.00 2 1011.9